OpenBCM V1.13 (Linux)

Packet Radio Mailbox

DB0FHN

[JN59NK Nuernberg]

 Login: GUEST





  
OZ1LQH > KEP      22.12.12 12:51l 75 Lines 3136 Bytes #999 (0) @ WW
BID : ARLK100
Read: DK3UZ GUEST
Subj: ARLK100 Keplerian data
Path: DB0FHN<DB0FOR<DB0SIF<HB9EAS<DB0ZAV<7M3TJZ<ZL2BAU<GB7MAX<VE3UIL<GB7YEW<
      PI8CDR<PI8HGL<PI8ZAA<OZ5BBS
Sent: 121222/0900Z @:OZ5BBS.FYN.DNK.EU #:23268 [Odense] $:ARLK100
From: OZ1LQH@OZ5BBS.FYN.DNK.EU
To  : KEP@WW

ZCZC SK01
QST de W1AW  
Keplerian Bulletin 100  ARLK100
From ARRL Headquarters
Newington, CT  December 21, 2012
To all radio amateurs 

SB KEP ARL ARLK100
ARLK100 Keplerian data

Special thanks to Spae-Track.org for the following Keplerian data.

Decode 2-line elsets with the following key:
1 AAAAAU 00  0  0 BBBBB.BBBBBBBB  .CCCCCCCC  00000-0  00000-0 0  DDDZ
2 AAAAA EEE.EEEE FFF.FFFF GGGGGGG HHH.HHHH III.IIII JJ.JJJJJJJJKKKKKZ
KEY: A-CATALOGNUM B-EPOCHTIME C-DECAY D-ELSETNUM E-INCLINATION F-RAAN
G-ECCENTRICITY H-ARGPERIGEE I-MNANOM J-MNMOTION K-ORBITNUM Z-CHECKSUM

AO-07
1 07530U 74089B   12355.09192142 -.00000027  00000-0  10000-3 0  5616
2 07530 101.4148 345.2089 0011811 279.4262 080.5468 12.53593586743340
AO-16
1 20439U 90005D   12355.70553780  .00000115  00000-0  58807-4 0  6337
2 20439 098.4513 294.0517 0010758 332.1655 027.8949 14.32122354196691
AO-27
1 22825U 93061C   12355.43259979  .00000196  00000-0  93803-4 0  2718
2 22825 098.5961 295.5429 0009293 092.9705 267.2565 14.29519665  3093
FO-29
1 24278U 96046B   12356.27730680  .00000031  00000-0  70877-4 0    64
2 24278 098.5782 072.4447 0349579 265.0402 091.0762 13.52994210807251
ISS
1 25544U 98067A   12356.84949273  .00011352  00000-0  19165-3 0  8720
2 25544 051.6487 269.2865 0017420 071.1950 037.8099 15.51995400807165
NO-44
1 26931U 01043C   12356.29458478  .00000146  00000-0  88748-4 0  2165
2 26931 067.0538 358.0780 0004742 261.3986 098.6541 14.29871921585998
SO-50
1 27607U 02058C   12356.27290610  .00000924  00000-0  16081-3 0  9467
2 27607 064.5580 085.6769 0067974 210.0494 149.6671 14.72695326537516
CO-55
1 27844U 03031E   12355.08283118  .00000213  00000-0  11818-3 0  5364
2 27844 098.7015 000.7616 0010435 048.9481 311.2599 14.21132507491295
RS-22
1 27939U 03042A   12356.38689966  .00000465  00000-0  96635-4 0   136
2 27939 097.7988 187.5115 0014017 035.3717 324.8413 14.64263988493278
VO-52
1 28650U 05017B   12356.13056977  .00000980  00000-0  12474-3 0  2967
2 28650 097.5803 017.8114 0026725 144.1754 216.1213 14.83455181412682
CO-58
1 28895U 05043F   12356.28955378  .00000524  00000-0  11605-3 0  3595
2 28895 097.8892 214.0808 0016591 283.4671 076.4656 14.60898025380977
CO-65
1 32785U 08021C   12355.17127415  .00000942  00000-0  12085-3 0  5024
2 32785 097.7762 051.6221 0014410 169.4132 190.7387 14.83469211251336
COMPASS 1
1 32787U 08021E   12354.85074047  .00002014  00000-0  24315-3 0  4954
2 32787 097.7776 051.9244 0014941 168.5242 191.6290 14.84796026251355
DO-64
1 32789U 08021G   12355.07622594  .00004773  00000-0  53451-3 0  5078
2 32789 097.7905 055.4564 0014372 163.3383 196.8311 14.87257320251490
RS-30
1 32953U 08025A   12356.50481828  .00000010  00000-0  00000+0 0  4300
2 32953 082.4987 178.6625 0018047 260.4386 099.4651 12.43030450207832
KKS-1
1 33499U 09002H   12355.36112954  .00000919  00000-0  15426-3 0  9299
2 33499 098.1285 109.9952 0009324 194.9631 165.1298 14.72063891209812

Keplerian bulletins are transmitted twice weekly from W1AW.  The
next scheduled transmission of these data will be Friday, December
28, 2012, at 2330z on Baudot and BPSK31.
NNNN


Read previous mail | Read next mail


 27.07.2026 16:03:51lGo back Go up